This is the latest recevied weather packets stored in our database for station/object KK6LVQ-13. If no packets are shown the sender has not sent any weather packets the latest 10 day(s).
| Time | Temp. | Humidity | Pressure | Rain* | Wind** | Luminosity | Snow |
|---|---|---|---|---|---|---|---|
| 1777565147 | 10.56° C | 90% | 1020.8 hPa | 0 mm | - | 328 W/m² | - |
| 1777564844 | 10.56° C | 91% | 1020.8 hPa | 0 mm | - | 303 W/m² | - |
| 1777564538 | 10.56° C | 91% | 1021 hPa | 0 mm | - | 271 W/m² | - |
| 1777564233 | 10° C | 92% | 1021 hPa | 0 mm | - | 241 W/m² | - |
| 1777563930 | 10° C | 92% | 1021 hPa | 0 mm | - | 218 W/m² | - |
| 1777563627 | 10° C | 93% | 1020.7 hPa | 0 mm | - | 195 W/m² | - |
| 1777563326 | 9.44° C | 94% | 1021 hPa | 0 mm | - | 174 W/m² | - |
| 1777563022 | 9.44° C | 96% | 1021 hPa | 0 mm | - | 151 W/m² | - |
| 1777562718 | 8.89° C | 98% | 1021.1 hPa | 0 mm | - | 136 W/m² | - |
| 1777562412 | 8.89° C | 98% | 1020.7 hPa | 0 mm | - | 123 W/m² | - |
| 1777562109 | 8.89° C | 99% | 1020.9 hPa | 0 mm | - | 116 W/m² | - |
| 1777561806 | 8.33° C | 99% | 1021 hPa | 0 mm | - | 105 W/m² | - |
| 1777561503 | 8.33° C | 99% | 1020.8 hPa | 0 mm | - | 98 W/m² | - |
| 1777561197 | 7.78° C | 99% | 1020.7 hPa | 0 mm | - | 87 W/m² | - |
| 1777560892 | 7.78° C | 99% | 1020.9 hPa | 0 mm | - | 34 W/m² | - |
| 1777560590 | 7.22° C | 99% | 1020.7 hPa | 0 mm | - | 34 W/m² | - |
| 1777560287 | 7.22° C | 99% | 1020.6 hPa | 0 mm | - | 32 W/m² | - |
| 1777559984 | 6.67° C | 99% | 1020.5 hPa | 0 mm | - | 31 W/m² | - |
| 1777559679 | 6.67° C | 99% | 1020.5 hPa | 0 mm | - | 30 W/m² | - |
| 1777559377 | 6.67° C | 99% | 1020.6 hPa | 0 mm | - | 29 W/m² | - |
| 1777559073 | 6.67° C | 99% | 1020.6 hPa | 0 mm | - | 28 W/m² | - |
| 1777558768 | 6.67° C | 99% | 1020.6 hPa | 0 mm | - | 28 W/m² | - |
| 1777558464 | 6.67° C | 99% | 1020.6 hPa | 0 mm | - | 32 W/m² | - |
| 1777558161 | 6.11° C | 99% | 1020.5 hPa | 0 mm | - | 40 W/m² | - |
| 1777557857 | 6.11° C | 99% | 1020.7 hPa | 0 mm | - | 36 W/m² | - |
* Rain latest hour (hover to see other rain measurements)
** Current wind speed in m/s (hover to see current wind gust speed)